[Date Prev][Date Next][Thread Prev][Thread Next] - [Date Index][Thread Index][Author Index]

2 Line ISS Keps 2-23



ISS
1 25544U 98067A   06054.04606457  .00015210  00000-0  10983-3 0  4041
2 25544 051.6399 054.5552 0008753 288.7160 183.3418 15.73713960415174
----
Via the sarex mailing list at AMSAT.ORG courtesy of AMSAT-NA.
To unsubscribe, send "unsubscribe sarex" to Majordomo@amsat.org



AMSAT Top AMSAT Home